| time (UTC) | temp F | wind direction | speed MPH | gust MPH | rain 1hr in | rain 24hr in | rain mn in | humidity % | barometer mb |
| 20260904171018 | 80 | 67 | 7.0 | 11.0 | 0.00 | 0.00 | 0.00 | 79 | 1015.4 |
| 20260904170520 | 80 | 68 | 7.0 | 11.0 | 0.00 | 0.00 | 0.00 | 80 | 1015.4 |
| 20260904170242 | 80 | 109 | 7.0 | 11.0 | 0.00 | 0.00 | 0.00 | 80 | 1016.0 |
| 20260904165517 | 79 | 73 | 4.0 | 11.0 | 0.00 | 0.00 | 0.00 | 81 | 1016.0 |
| 20260904165017 | 79 | 84 | 4.0 | 13.0 | 0.00 | 0.00 | 0.00 | 81 | 1016.0 |
| 20260904164516 | 79 | 154 | 3.0 | 13.0 | 0.00 | 0.00 | 0.00 | 81 | 1016.0 |
| 20260904164018 | 80 | 62 | 9.0 | 10.0 | 0.00 | 0.00 | 0.00 | 80 | 1016.4 |
| 20260904163515 | 79 | 129 | 4.0 | 11.0 | 0.00 | 0.00 | 0.00 | 81 | 1016.0 |
| 20260904163233 | 79 | 88 | 5.0 | 17.0 | 0.00 | 0.00 | 0.00 | 82 | 1015.7 |
| 20260904162739 | 79 | 123 | 6.0 | 17.0 | 0.00 | 0.00 | 0.00 | 82 | 1015.7 |
| 20260904162013 | 80 | 122 | 6.0 | 12.0 | 0.00 | 0.00 | 0.00 | 82 | 1015.7 |
| 20260904161515 | 80 | 88 | 5.0 | 12.0 | 0.00 | 0.00 | 0.00 | 82 | 1016.0 |
| 20260904161013 | 80 | 54 | 3.0 | 13.0 | 0.00 | 0.00 | 0.00 | 82 | 1015.7 |
| 20260904160514 | 80 | 118 | 7.0 | 13.0 | 0.00 | 0.00 | 0.00 | 81 | 1015.7 |
| 20260904160242 | 80 | 99 | 3.0 | 6.0 | 0.00 | 0.00 | 0.00 | 83 | 1015.7 |
| 20260904155510 | 80 | 87 | 4.0 | 10.0 | 0.00 | 0.00 | 0.00 | 82 | 1015.4 |
| 20260904155237 | 80 | 74 | 5.0 | 10.0 | 0.00 | 0.00 | 0.00 | 83 | 1015.7 |
| 20260904154509 | 80 | 71 | 9.0 | 10.0 | 0.00 | 0.00 | 0.00 | 82 | 1015.7 |
| 20260904154017 | 80 | 30 | 4.0 | 10.0 | 0.00 | 0.00 | 0.00 | 83 | 1015.4 |
| 20260904154009 | 80 | 32 | 4.0 | 9.0 | 0.00 | 0.00 | 0.00 | 82 | 1015.7 |
| 20260904153509 | 80 | 346 | 4.0 | 9.0 | 0.00 | 0.00 | 0.00 | 84 | 1015.4 |
| 20260904152520 | 80 | 69 | 6.0 | 10.0 | 0.00 | 0.00 | 0.00 | 83 | 1015.0 |
| 20260904152008 | 80 | 67 | 8.0 | 10.0 | 0.00 | 0.00 | 0.00 | 82 | 1015.4 |
| 20260904151506 | 81 | 13 | 6.0 | 9.0 | 0.00 | 0.00 | 0.00 | 81 | 1015.4 |
| 20260904151008 | 81 | 75 | 6.0 | 9.0 | 0.00 | 0.00 | 0.00 | 81 | 1015.0 |
| 20260904150520 | 81 | 117 | 4.0 | 7.0 | 0.00 | 0.00 | 0.00 | 81 | 1014.3 |
| 20260904150008 | 81 | 53 | 3.0 | 9.0 | 0.00 | 0.00 | 0.00 | 81 | 1014.7 |
| 20260904145507 | 80 | 115 | 4.0 | 9.0 | 0.00 | 0.00 | 0.00 | 80 | 1014.3 |
| 20260904145003 | 80 | 93 | 4.0 | 9.0 | 0.00 | 0.00 | 0.00 | 82 | 1014.3 |
| 20260904144503 | 80 | 45 | 2.0 | 9.0 | 0.00 | 0.00 | 0.00 | 82 | 1014.3 |
| 20260904144003 | 80 | 152 | 4.0 | 7.0 | 0.00 | 0.00 | 0.00 | 83 | 1014.3 |
| 20260904143724 | 80 | 78 | 2.0 | 8.0 | 0.00 | 0.00 | 0.00 | 83 | 1014.3 |
| 20260904143005 | 80 | 81 | 8.0 | 9.0 | 0.00 | 0.00 | 0.00 | 83 | 1014.3 |
| 20260904142502 | 80 | 99 | 3.0 | 9.0 | 0.00 | 0.00 | 0.00 | 83 | 1014.3 |
| 20260904142002 | 80 | 33 | 5.0 | 9.0 | 0.00 | 0.00 | 0.00 | 81 | 1014.3 |
| 20260904141501 | 81 | 70 | 6.0 | 10.0 | 0.00 | 0.00 | 0.00 | 83 | 1014.3 |
| 20260904140959 | 81 | 86 | 2.0 | 10.0 | 0.00 | 0.00 | 0.00 | 81 | 1014.3 |
| 20260904140515 | 82 | 80 | 4.0 | 7.0 | 0.00 | 0.00 | 0.00 | 81 | 1014.3 |
| 20260904140002 | 81 | 74 | 4.0 | 4.0 | 0.00 | 0.00 | 0.00 | 83 | 1014.3 |
| 20260904135500 | 80 | 63 | 3.0 | 4.0 | 0.00 | 0.00 | 0.00 | 81 | 1014.3 |
| 20260904134959 | 80 | 69 | 4.0 | 4.0 | 0.00 | 0.00 | 0.00 | 83 | 1014.0 |
| 20260904134458 | 80 | 347 | 0.0 | 3.0 | 0.00 | 0.00 | 0.00 | 83 | 1014.0 |
| 20260904134008 | 79 | 61 | 1.0 | 4.0 | 0.00 | 0.00 | 0.00 | 85 | 1014.0 |
| 20260904133456 | 79 | 65 | 3.0 | 4.0 | 0.00 | 0.00 | 0.00 | 85 | 1014.0 |
| 20260904132957 | 78 | 103 | 0.0 | 3.0 | 0.00 | 0.00 | 0.00 | 87 | 1014.0 |
| 20260904132455 | 77 | 75 | 2.0 | 3.0 | 0.00 | 0.00 | 0.00 | 90 | 1014.0 |
| 20260904131955 | 76 | 192 | 2.0 | 2.0 | 0.00 | 0.00 | 0.00 | 92 | 1014.0 |
| 20260904131720 | 76 | 180 | 0.0 | 3.0 | 0.00 | 0.00 | 0.00 | 92 | 1014.0 |
| 20260904130955 | 75 | 133 | 0.0 | 4.0 | 0.00 | 0.00 | 0.00 | 93 | 1014.0 |
| 20260904130455 | 74 | 37 | 1.0 | 4.0 | 0.00 | 0.00 | 0.00 | 94 | 1014.0 |
| 20260904125953 | 74 | 63 | 3.0 | 3.0 | 0.00 | 0.00 | 0.00 | 95 | 1013.7 |
| 20260904125452 | 74 | 75 | 2.0 | 2.0 | 0.00 | 0.00 | 0.00 | 95 | 1013.7 |
| 20260904124953 | 74 | 37 | 0.0 | 0.0 | 0.00 | 0.00 | 0.00 | 95 | 1013.3 |
| 20260904124456 | 74 | 37 | 0.0 | 0.0 | 0.00 | 0.00 | 0.00 | 95 | 1013.3 |
| 20260904123951 | 74 | 37 | 0.0 | 0.0 | 0.00 | 0.00 | 0.00 | 95 | 1013.3 |
| 20260904123715 | 74 | 113 | 0.0 | 1.0 | 0.00 | 0.00 | 0.00 | 95 | 1012.9 |
| 20260904123208 | 73 | 89 | 0.0 | 2.0 | 0.00 | 0.00 | 0.00 | 95 | 1012.9 |
| 20260904122450 | 73 | 76 | 1.0 | 2.0 | 0.00 | 0.00 | 0.00 | 95 | 1012.5 |
| 20260904121950 | 73 | 89 | 1.0 | 1.0 | 0.00 | 0.00 | 0.00 | 95 | 1012.5 |
| 20260904121449 | 73 | 103 | 0.0 | 1.0 | 0.00 | 0.00 | 0.00 | 94 | 1012.5 |
| 20260904120947 | 73 | 117 | 0.0 | 0.0 | 0.00 | 0.00 | 0.00 | 94 | 1012.5 |
| 20260904120709 | 73 | 117 | 0.0 | 0.0 | 0.00 | 0.00 | 0.00 | 93 | 1012.5 |
| 20260904115949 | 73 | 117 | 0.0 | 0.0 | 0.00 | 0.00 | 0.00 | 93 | 1012.2 |
| 20260904115707 | 74 | 29 | 0.0 | 0.0 | 0.00 | 0.00 | 0.00 | 93 | 1012.5 |
| 20260904115214 | 74 | 29 | 0.0 | 0.0 | 0.00 | 0.00 | 0.00 | 92 | 1012.2 |
| 20260904114445 | 74 | 29 | 0.0 | 0.0 | 0.00 | 0.00 | 0.00 | 92 | 1012.2 |
| 20260904113946 | 74 | 333 | 0.0 | 0.0 | 0.00 | 0.00 | 0.00 | 91 | 1012.5 |
| 20260904113706 | 74 | 37 | 0.0 | 0.0 | 0.00 | 0.00 | 0.00 | 91 | 1012.2 |
| 20260904112943 | 75 | 167 | 0.0 | 1.0 | 0.00 | 0.00 | 0.00 | 90 | 1012.2 |
| 20260904112443 | 75 | 224 | 0.0 | 1.0 | 0.00 | 0.00 | 0.00 | 89 | 1012.2 |
| 20260904112211 | 75 | 230 | 0.0 | 1.0 | 0.00 | 0.00 | 0.00 | 89 | 1012.2 |
| 20260904111707 | 76 | 202 | 0.0 | 2.0 | 0.00 | 0.00 | 0.00 | 89 | 1012.2 |
| 20260904110943 | 76 | 239 | 1.0 | 3.0 | 0.00 | 0.00 | 0.00 | 89 | 1011.9 |
| 20260904110451 | 76 | 291 | 2.0 | 4.0 | 0.00 | 0.00 | 0.00 | 88 | 1012.2 |
| 20260904105942 | 76 | 251 | 1.0 | 4.0 | 0.00 | 0.00 | 0.00 | 88 | 1011.9 |
| 20260904105441 | 76 | 246 | 2.0 | 4.0 | 0.00 | 0.00 | 0.00 | 88 | 1011.9 |
| 20260904104941 | 76 | 269 | 0.0 | 5.0 | 0.00 | 0.00 | 0.00 | 88 | 1011.9 |
| 20260904104440 | 76 | 217 | 2.0 | 6.0 | 0.00 | 0.00 | 0.00 | 88 | 1011.9 |
| 20260904103938 | 76 | 250 | 3.0 | 6.0 | 0.00 | 0.00 | 0.00 | 88 | 1011.9 |
| 20260904103439 | 76 | 233 | 2.0 | 5.0 | 0.00 | 0.00 | 0.00 | 88 | 1011.5 |
| 20260904103203 | 76 | 247 | 4.0 | 5.0 | 0.00 | 0.00 | 0.00 | 88 | 1011.9 |
| 20260904102437 | 76 | 240 | 2.0 | 5.0 | 0.00 | 0.00 | 0.00 | 88 | 1011.5 |
| 20260904101938 | 76 | 235 | 3.0 | 6.0 | 0.00 | 0.00 | 0.00 | 88 | 1011.5 |
| 20260904101439 | 76 | 253 | 3.0 | 6.0 | 0.00 | 0.00 | 0.00 | 88 | 1011.9 |
| 20260904100935 | 76 | 253 | 4.0 | 6.0 | 0.00 | 0.00 | 0.00 | 88 | 1011.9 |
| 20260904100435 | 76 | 235 | 3.0 | 5.0 | 0.00 | 0.00 | 0.00 | 89 | 1011.9 |
| 20260904095935 | 77 | 226 | 3.0 | 5.0 | 0.00 | 0.00 | 0.00 | 89 | 1011.9 |
| 20260904095434 | 77 | 233 | 2.0 | 4.0 | 0.00 | 0.00 | 0.00 | 89 | 1011.9 |
| 20260904094936 | 77 | 248 | 3.0 | 6.0 | 0.00 | 0.00 | 0.00 | 89 | 1011.9 |
| 20260904094434 | 77 | 226 | 4.0 | 6.0 | 0.00 | 0.00 | 0.00 | 89 | 1011.5 |
| 20260904093933 | 77 | 235 | 4.0 | 5.0 | 0.00 | 0.00 | 0.00 | 90 | 1011.9 |
| 20260904093650 | 76 | 243 | 4.0 | 5.0 | 0.00 | 0.00 | 0.00 | 90 | 1011.9 |
| 20260904092931 | 76 | 234 | 3.0 | 4.0 | 0.00 | 0.00 | 0.00 | 92 | 1011.9 |
| 20260904092434 | 76 | 255 | 3.0 | 4.0 | 0.00 | 0.00 | 0.00 | 92 | 1012.2 |
| 20260904091932 | 76 | 237 | 2.0 | 3.0 | 0.00 | 0.00 | 0.00 | 92 | 1012.2 |
| 20260904091431 | 76 | 238 | 2.0 | 2.0 | 0.00 | 0.00 | 0.00 | 92 | 1012.2 |
| 20260904090929 | 76 | 228 | 2.0 | 2.0 | 0.00 | 0.00 | 0.00 | 92 | 1012.5 |
| 20260904090428 | 76 | 252 | 1.0 | 2.0 | 0.00 | 0.00 | 0.00 | 92 | 1012.5 |
| 20260904085930 | 76 | 191 | 0.0 | 2.0 | 0.00 | 0.00 | 0.00 | 93 | 1012.5 |
| 20260904085644 | 76 | 223 | 0.0 | 3.0 | 0.00 | 0.00 | 0.00 | 93 | 1012.5 |
| 20260904084927 | 76 | 231 | 1.0 | 4.0 | 0.00 | 0.00 | 0.00 | 93 | 1012.5 |
| 20260904084430 | 76 | 238 | 2.0 | 4.0 | 0.00 | 0.00 | 0.00 | 94 | 1012.5 |
| 20260904083927 | 76 | 250 | 0.0 | 4.0 | 0.00 | 0.00 | 0.00 | 94 | 1012.5 |
| 20260904083428 | 76 | 247 | 2.0 | 3.0 | 0.00 | 0.00 | 0.00 | 95 | 1012.2 |
| 20260904082925 | 76 | 251 | 2.0 | 3.0 | 0.00 | 0.00 | 0.00 | 95 | 1012.5 |
| 20260904082426 | 75 | 259 | 2.0 | 3.0 | 0.00 | 0.00 | 0.00 | 95 | 1012.5 |
| 20260904081927 | 75 | 250 | 2.0 | 2.0 | 0.00 | 0.00 | 0.00 | 95 | 1012.5 |
| 20260904081424 | 75 | 256 | 1.0 | 2.0 | 0.00 | 0.00 | 0.00 | 95 | 1012.5 |
| 20260904080926 | 76 | 243 | 0.0 | 2.0 | 0.00 | 0.00 | 0.00 | 95 | 1012.5 |
| 20260904080422 | 76 | 247 | 0.0 | 1.0 | 0.00 | 0.00 | 0.00 | 95 | 1012.5 |
| 20260904080144 | 76 | 180 | 0.0 | 1.0 | 0.00 | 0.00 | 0.00 | 95 | 1012.5 |
| 20260904075647 | 76 | 242 | 0.0 | 1.0 | 0.00 | 0.00 | 0.00 | 95 | 1012.2 |
| 20260904074921 | 76 | 202 | 0.0 | 2.0 | 0.00 | 0.00 | 0.00 | 95 | 1012.5 |
| 20260904074642 | 76 | 180 | 0.0 | 2.0 | 0.00 | 0.00 | 0.00 | 95 | 1012.2 |
| 20260904074140 | 76 | 207 | 1.0 | 2.0 | 0.00 | 0.00 | 0.00 | 96 | 1012.2 |
| 20260904073421 | 75 | 206 | 2.0 | 2.0 | 0.00 | 0.00 | 0.00 | 96 | 1011.9 |
| 20260904072919 | 75 | 191 | 1.0 | 2.0 | 0.00 | 0.00 | 0.00 | 96 | 1011.9 |
| 20260904072419 | 75 | 235 | 1.0 | 2.0 | 0.00 | 0.00 | 0.00 | 97 | 1011.9 |
| 20260904071918 | 75 | 248 | 1.0 | 2.0 | 0.00 | 0.00 | 0.00 | 96 | 1011.9 |
| 20260904071419 | 75 | 232 | 0.0 | 2.0 | 0.00 | 0.00 | 0.00 | 96 | 1011.9 |
| 20260904070917 | 75 | 205 | 0.0 | 1.0 | 0.00 | 0.00 | 0.00 | 96 | 1011.9 |
| 20260904070418 | 74 | 235 | 0.0 | 1.0 | 0.00 | 0.00 | 0.00 | 95 | 1012.2 |
| 20260904065916 | 74 | 193 | 0.0 | 1.0 | 0.00 | 0.00 | 0.00 | 95 | 1012.2 |
| 20260904065416 | 74 | 224 | 0.0 | 1.0 | 0.00 | 0.00 | 0.00 | 95 | 1012.2 |
| 20260904064917 | 74 | 206 | 0.0 | 1.0 | 0.00 | 0.00 | 0.00 | 95 | 1012.2 |
| 20260904064414 | 75 | 218 | 1.0 | 1.0 | 0.00 | 0.00 | 0.00 | 95 | 1012.5 |
| 20260904063914 | 75 | 208 | 0.0 | 1.0 | 0.00 | 0.00 | 0.00 | 95 | 1012.5 |
| 20260904063413 | 75 | 209 | 0.0 | 2.0 | 0.00 | 0.00 | 0.00 | 94 | 1012.5 |
| 20260904063122 | 75 | 197 | 0.0 | 1.0 | 0.00 | 0.00 | 0.00 | 94 | 1012.9 |
| 20260904063002 | 75 | 203 | 1.0 | 2.0 | 0.00 | 0.00 | 0.00 | 94 | 1012.5 |
| 20260904061913 | 75 | 219 | 0.0 | 2.0 | 0.00 | 0.00 | 0.00 | 94 | 1012.9 |
| 20260904061412 | 75 | 170 | 1.0 | 2.0 | 0.00 | 0.00 | 0.00 | 94 | 1012.9 |
| 20260904060911 | 75 | 167 | 2.0 | 2.0 | 0.00 | 0.00 | 0.00 | 94 | 1012.9 |
| 20260904060411 | 75 | 173 | 1.0 | 2.0 | 0.00 | 0.00 | 0.00 | 94 | 1013.3 |
| 20260904060136 | 75 | 160 | 1.0 | 2.0 | 0.00 | 0.00 | 0.00 | 95 | 1013.3 |
| 20260904055425 | 75 | 142 | 0.0 | 1.0 | 0.00 | 0.00 | 0.00 | 95 | 1013.3 |
| 20260904054910 | 75 | 129 | 0.0 | 1.0 | 0.00 | 0.00 | 0.00 | 95 | 1013.3 |
| 20260904054409 | 75 | 154 | 0.0 | 1.0 | 0.00 | 0.00 | 0.00 | 95 | 1013.3 |
| 20260904054135 | 75 | 140 | 1.0 | 2.0 | 0.00 | 0.00 | 0.00 | 95 | 1013.7 |
| 20260904053421 | 75 | 205 | 0.0 | 2.0 | 0.00 | 0.00 | 0.00 | 95 | 1013.3 |
| 20260904052906 | 75 | 154 | 0.0 | 2.0 | 0.00 | 0.00 | 0.00 | 95 | 1013.3 |
| 20260904052407 | 75 | 214 | 0.0 | 2.0 | 0.00 | 0.00 | 0.00 | 94 | 1013.7 |
| 20260904051907 | 75 | 150 | 0.0 | 1.0 | 0.00 | 0.00 | 0.00 | 94 | 1013.3 |
| 20260904051407 | 75 | 129 | 0.0 | 0.0 | 0.00 | 0.00 | 0.00 | 94 | 1013.3 |
| 20260904050905 | 75 | 129 | 0.0 | 0.0 | 0.00 | 0.00 | 0.00 | 94 | 1012.9 |
| 20260904050405 | 75 | 129 | 0.0 | 0.0 | 0.00 | 0.00 | 0.00 | 94 | 1012.9 |
| 20260904045903 | 75 | 103 | 0.0 | 1.0 | 0.00 | 0.00 | 0.00 | 94 | 1012.9 |
| 20260904045404 | 75 | 89 | 0.0 | 1.0 | 0.00 | 0.00 | 0.00 | 94 | 1012.9 |
| 20260904044903 | 75 | 309 | 0.0 | 1.0 | 0.00 | 0.00 | 0.00 | 93 | 1013.3 |
| 20260904044627 | 76 | 322 | 0.0 | 1.0 | 0.00 | 0.00 | 0.00 | 93 | 1013.3 |
| 20260904043901 | 76 | 297 | 0.0 | 1.0 | 0.00 | 0.00 | 0.00 | 93 | 1012.9 |
| 20260904043402 | 76 | 230 | 0.0 | 1.0 | 0.00 | 0.00 | 0.00 | 92 | 1013.3 |
| 20260904043128 | 76 | 230 | 0.0 | 1.0 | 0.00 | 0.00 | 0.00 | 92 | 1013.3 |
| 20260904042400 | 76 | 180 | 0.0 | 1.0 | 0.00 | 0.00 | 0.00 | 92 | 1012.9 |
| 20260904041900 | 76 | 135 | 0.0 | 0.0 | 0.00 | 0.00 | 0.00 | 92 | 1013.3 |
| 20260904041402 | 76 | 129 | 0.0 | 0.0 | 0.00 | 0.00 | 0.00 | 92 | 1013.3 |
| 20260904040900 | 76 | 129 | 0.0 | 0.0 | 0.00 | 0.00 | 0.00 | 92 | 1013.3 |
| 20260904040359 | 76 | 22 | 0.0 | 2.0 | 0.00 | 0.00 | 0.00 | 92 | 1013.7 |
| 20260904035858 | 76 | 269 | 0.0 | 2.0 | 0.00 | 0.00 | 0.00 | 91 | 1013.3 |
| 20260904035357 | 76 | 284 | 0.0 | 2.0 | 0.00 | 0.00 | 0.00 | 91 | 1012.9 |
| 20260904034857 | 76 | 269 | 1.0 | 2.0 | 0.00 | 0.00 | 0.00 | 91 | 1013.3 |
| 20260904034357 | 77 | 333 | 2.0 | 2.0 | 0.00 | 0.00 | 0.00 | 91 | 1013.3 |
| 20260904033858 | 77 | 333 | 0.0 | 1.0 | 0.00 | 0.00 | 0.00 | 91 | 1013.3 |
| 20260904033356 | 77 | 297 | 0.0 | 1.0 | 0.00 | 0.00 | 0.00 | 91 | 1013.3 |
| 20260904032900 | 77 | 357 | 0.0 | 2.0 | 0.00 | 0.00 | 0.00 | 90 | 1013.3 |
| 20260904032854 | 77 | 306 | 0.0 | 2.0 | 0.00 | 0.00 | 0.00 | 91 | 1013.3 |
| 20260904031854 | 77 | 104 | 0.0 | 1.0 | 0.00 | 0.00 | 0.00 | 91 | 1013.3 |
| 20260904031354 | 77 | 89 | 0.0 | 1.0 | 0.00 | 0.00 | 0.00 | 92 | 1013.3 |
| 20260904030853 | 77 | 89 | 0.0 | 1.0 | 0.00 | 0.00 | 0.00 | 92 | 1013.3 |
| 20260904030353 | 77 | 120 | 0.0 | 1.0 | 0.00 | 0.00 | 0.00 | 92 | 1013.3 |
| 20260904025853 | 77 | 25 | 0.0 | 1.0 | 0.00 | 0.00 | 0.00 | 91 | 1013.3 |
| 20260904025353 | 77 | 75 | 0.0 | 2.0 | 0.00 | 0.00 | 0.00 | 91 | 1013.3 |
| 20260904024850 | 77 | 183 | 0.0 | 2.0 | 0.00 | 0.00 | 0.00 | 92 | 1013.3 |
| 20260904024616 | 77 | 322 | 0.0 | 2.0 | 0.00 | 0.00 | 0.00 | 92 | 1013.7 |
| 20260904024111 | 77 | 343 | 1.0 | 2.0 | 0.00 | 0.00 | 0.00 | 92 | 1013.3 |
| 20260904023349 | 77 | 65 | 0.0 | 2.0 | 0.00 | 0.00 | 0.00 | 91 | 1013.3 |
| 20260904022850 | 77 | 32 | 1.0 | 1.0 | 0.00 | 0.00 | 0.00 | 92 | 1013.3 |
| 20260904022617 | 77 | 309 | 0.0 | 0.0 | 0.00 | 0.00 | 0.00 | 92 | 1013.3 |
| 20260904021848 | 77 | 352 | 0.0 | 2.0 | 0.00 | 0.00 | 0.00 | 91 | 1013.3 |
| 20260904021606 | 77 | 242 | 0.0 | 2.0 | 0.00 | 0.00 | 0.00 | 91 | 1012.9 |
| 20260904020847 | 77 | 239 | 1.0 | 1.0 | 0.00 | 0.00 | 0.00 | 91 | 1012.9 |
| 20260904020348 | 78 | 242 | 0.0 | 0.0 | 0.00 | 0.00 | 0.00 | 92 | 1012.9 |
| 20260904015848 | 78 | 104 | 0.0 | 1.0 | 0.00 | 0.00 | 0.00 | 92 | 1012.9 |
| 20260904015346 | 78 | 25 | 0.0 | 1.0 | 0.00 | 0.00 | 0.00 | 91 | 1012.9 |
| 20260904014845 | 78 | 297 | 0.0 | 1.0 | 0.00 | 0.00 | 0.00 | 91 | 1012.9 |
| 20260904014613 | 78 | 333 | 0.0 | 1.0 | 0.00 | 0.00 | 0.00 | 90 | 1012.9 |
| 20260904013843 | 78 | 315 | 0.0 | 0.0 | 0.00 | 0.00 | 0.00 | 90 | 1012.9 |
| 20260904013344 | 78 | 309 | 0.0 | 1.0 | 0.00 | 0.00 | 0.00 | 90 | 1012.5 |
| 20260904012844 | 79 | 309 | 0.0 | 1.0 | 0.00 | 0.00 | 0.00 | 89 | 1012.5 |
| 20260904012342 | 79 | 317 | 0.0 | 1.0 | 0.00 | 0.00 | 0.00 | 89 | 1012.5 |
| 20260904011841 | 79 | 315 | 0.0 | 0.0 | 0.00 | 0.00 | 0.00 | 89 | 1012.5 |
| 20260904011343 | 79 | 315 | 0.0 | 1.0 | 0.00 | 0.00 | 0.00 | 88 | 1012.5 |
| 20260904010842 | 80 | 315 | 0.0 | 1.0 | 0.00 | 0.00 | 0.00 | 88 | 1012.2 |
| 20260904010340 | 80 | 15 | 0.0 | 2.0 | 0.00 | 0.00 | 0.00 | 87 | 1012.5 |
| 20260904005840 | 80 | 336 | 0.0 | 2.0 | 0.00 | 0.00 | 0.00 | 86 | 1012.2 |
| 20260904005815 | 81 | 320 | 1.0 | 2.0 | 0.00 | 0.00 | 0.00 | 85 | 1012.2 |
| 20260904004839 | 81 | 325 | 2.0 | 2.0 | 0.00 | 0.00 | 0.00 | 84 | 1011.9 |
| 20260904004339 | 81 | 327 | 2.0 | 2.0 | 0.00 | 0.00 | 0.00 | 83 | 1011.9 |
| 20260904003837 | 82 | 345 | 1.0 | 2.0 | 0.00 | 0.00 | 0.00 | 83 | 1011.9 |
| 20260904003338 | 82 | 331 | 0.0 | 2.0 | 0.00 | 0.00 | 0.00 | 82 | 1011.9 |
| 20260904002837 | 82 | 283 | 0.0 | 2.0 | 0.00 | 0.00 | 0.00 | 80 | 1011.5 |
| 20260904002336 | 83 | 179 | 0.0 | 1.0 | 0.00 | 0.00 | 0.00 | 80 | 1011.5 |
| 20260904001837 | 83 | 195 | 0.0 | 2.0 | 0.00 | 0.00 | 0.00 | 79 | 1011.5 |
| 20260904001334 | 84 | 213 | 0.0 | 2.0 | 0.00 | 0.00 | 0.00 | 78 | 1011.9 |
| 20260904000835 | 84 | 214 | 0.0 | 3.0 | 0.00 | 0.00 | 0.00 | 78 | 1011.5 |
| 20260904000603 | 84 | 214 | 0.0 | 3.0 | 0.00 | 0.00 | 0.00 | 77 | 1011.5 |
| 20260904000053 | 85 | 243 | 0.0 | 2.0 | 0.00 | 0.00 | 0.00 | 76 | 1011.5 |
| 20260903235334 | 85 | 201 | 2.0 | 2.0 | 0.00 | 0.00 | 0.00 | 75 | 1011.2 |
| 20260903234832 | 85 | 211 | 1.0 | 1.0 | 0.00 | 0.00 | 0.00 | 75 | 1011.5 |
| 20260903234559 | 85 | 214 | 0.0 | 2.0 | 0.00 | 0.00 | 0.00 | 73 | 1011.5 |
| 20260903234050 | 86 | 184 | 2.0 | 2.0 | 0.00 | 0.00 | 0.00 | 72 | 1011.5 |
| 20260903233817 | 86 | 171 | 0.0 | 2.0 | 0.00 | 0.00 | 0.00 | 73 | 1011.9 |
| 20260903232831 | 86 | 290 | 0.0 | 2.0 | 0.00 | 0.00 | 0.00 | 72 | 1011.5 |
| 20260903232330 | 86 | 216 | 1.0 | 2.0 | 0.00 | 0.00 | 0.00 | 72 | 1011.9 |
| 20260903231830 | 86 | 217 | 2.0 | 2.0 | 0.00 | 0.00 | 0.00 | 72 | 1011.9 |
| 20260903231330 | 86 | 30 | 0.0 | 2.0 | 0.00 | 0.00 | 0.00 | 71 | 1011.9 |
| 20260903230831 | 87 | 234 | 2.0 | 2.0 | 0.00 | 0.00 | 0.00 | 71 | 1011.9 |
| 20260903230602 | 87 | 225 | 2.0 | 2.0 | 0.00 | 0.00 | 0.00 | 72 | 1012.2 |
| 20260903225827 | 87 | 304 | 0.0 | 2.0 | 0.00 | 0.00 | 0.00 | 70 | 1011.9 |
| 20260903225328 | 87 | 254 | 1.0 | 2.0 | 0.00 | 0.00 | 0.00 | 70 | 1012.2 |
| 20260903224827 | 87 | 231 | 1.0 | 2.0 | 0.00 | 0.00 | 0.00 | 70 | 1012.2 |
| 20260903224328 | 87 | 272 | 1.0 | 2.0 | 0.00 | 0.00 | 0.00 | 70 | 1012.2 |
| 20260903223826 | 88 | 254 | 2.0 | 3.0 | 0.00 | 0.00 | 0.00 | 69 | 1011.9 |
| 20260903223326 | 88 | 261 | 2.0 | 3.0 | 0.00 | 0.00 | 0.00 | 69 | 1012.2 |
| 20260903222824 | 88 | 213 | 0.0 | 2.0 | 0.00 | 0.00 | 0.00 | 70 | 1012.2 |
| 20260903222542 | 88 | 250 | 1.0 | 2.0 | 0.00 | 0.00 | 0.00 | 68 | 1012.2 |
| 20260903221823 | 88 | 232 | 2.0 | 2.0 | 0.00 | 0.00 | 0.00 | 67 | 1012.2 |
| 20260903221323 | 88 | 272 | 1.0 | 3.0 | 0.00 | 0.00 | 0.00 | 67 | 1012.2 |
| 20260903220823 | 88 | 232 | 1.0 | 5.0 | 0.00 | 0.00 | 0.00 | 66 | 1012.2 |
| 20260903220322 | 88 | 158 | 3.0 | 5.0 | 0.00 | 0.00 | 0.00 | 66 | 1012.5 |
| 20260903215821 | 88 | 254 | 1.0 | 5.0 | 0.00 | 0.00 | 0.00 | 67 | 1012.2 |
| 20260903215322 | 88 | 216 | 2.0 | 4.0 | 0.00 | 0.00 | 0.00 | 66 | 1012.5 |
| 20260903215043 | 88 | 239 | 2.0 | 6.0 | 0.00 | 0.00 | 0.00 | 68 | 1012.2 |
| 20260903214320 | 88 | 185 | 2.0 | 6.0 | 0.00 | 0.00 | 0.00 | 67 | 1012.2 |
| 20260903213820 | 88 | 264 | 2.0 | 4.0 | 0.00 | 0.00 | 0.00 | 66 | 1012.2 |
| 20260903213319 | 88 | 218 | 1.0 | 4.0 | 0.00 | 0.00 | 0.00 | 68 | 1012.2 |
| 20260903212820 | 88 | 168 | 2.0 | 4.0 | 0.00 | 0.00 | 0.00 | 66 | 1012.5 |
| 20260903212317 | 88 | 223 | 2.0 | 5.0 | 0.00 | 0.00 | 0.00 | 66 | 1012.5 |
| 20260903211818 | 88 | 281 | 3.0 | 5.0 | 0.00 | 0.00 | 0.00 | 65 | 1012.5 |
| 20260903211318 | 88 | 253 | 2.0 | 4.0 | 0.00 | 0.00 | 0.00 | 66 | 1012.5 |
| 20260903210818 | 88 | 241 | 2.0 | 6.0 | 0.00 | 0.00 | 0.00 | 67 | 1012.5 |
| 20260903210316 | 88 | 225 | 2.0 | 6.0 | 0.00 | 0.00 | 0.00 | 65 | 1012.5 |
| 20260903205815 | 88 | 323 | 1.0 | 4.0 | 0.00 | 0.00 | 0.00 | 65 | 1012.5 |
| 20260903205316 | 88 | 152 | 3.0 | 4.0 | 0.00 | 0.00 | 0.00 | 67 | 1012.5 |
| 20260903205306 | 88 | 210 | 2.0 | 5.0 | 0.00 | 0.00 | 0.00 | 67 | 1012.5 |
| 20260903204314 | 88 | 219 | 1.0 | 5.0 | 0.00 | 0.00 | 0.00 | 67 | 1012.5 |
| 20260903203815 | 88 | 184 | 0.0 | 4.0 | 0.00 | 0.00 | 0.00 | 67 | 1012.5 |
| 20260903203313 | 88 | 267 | 1.0 | 4.0 | 0.00 | 0.00 | 0.00 | 67 | 1012.5 |
| 20260903202813 | 88 | 185 | 4.0 | 4.0 | 0.00 | 0.00 | 0.00 | 68 | 1012.5 |
| 20260903202541 | 88 | 203 | 2.0 | 6.0 | 0.00 | 0.00 | 0.00 | 70 | 1012.5 |
| 20260903202033 | 87 | 174 | 2.0 | 6.0 | 0.00 | 0.00 | 0.00 | 67 | 1012.9 |
| 20260903201311 | 87 | 276 | 2.0 | 6.0 | 0.00 | 0.00 | 0.00 | 70 | 1012.9 |
| 20260903200810 | 87 | 159 | 4.0 | 6.0 | 0.00 | 0.00 | 0.00 | 71 | 1012.5 |
| 20260903200309 | 86 | 222 | 3.0 | 6.0 | 0.00 | 0.00 | 0.00 | 72 | 1012.9 |
| 20260903195810 | 86 | 182 | 4.0 | 4.0 | 0.00 | 0.00 | 0.00 | 71 | 1012.5 |
| 20260903195531 | 86 | 201 | 3.0 | 4.0 | 0.00 | 0.00 | 0.00 | 71 | 1012.9 |
| 20260903194810 | 85 | 283 | 1.0 | 4.0 | 0.00 | 0.00 | 0.00 | 73 | 1012.9 |
| 20260903194307 | 85 | 192 | 0.0 | 5.0 | 0.00 | 0.00 | 0.00 | 74 | 1013.3 |
| 20260903193807 | 85 | 147 | 1.0 | 5.0 | 0.00 | 0.00 | 0.00 | 72 | 1012.9 |
| 20260903193308 | 84 | 175 | 2.0 | 6.0 | 0.00 | 0.00 | 0.00 | 73 | 1013.3 |
| 20260903192808 | 85 | 187 | 0.0 | 9.0 | 0.00 | 0.00 | 0.00 | 72 | 1013.3 |
| 20260903192307 | 85 | 167 | 4.0 | 9.0 | 0.00 | 0.00 | 0.00 | 72 | 1013.3 |
| 20260903191806 | 85 | 156 | 6.0 | 6.0 | 0.00 | 0.00 | 0.00 | 74 | 1013.3 |
| 20260903191533 | 84 | 227 | 2.0 | 6.0 | 0.00 | 0.00 | 0.00 | 74 | 1013.3 |
| 20260903190806 | 84 | 242 | 2.0 | 5.0 | 0.00 | 0.00 | 0.00 | 74 | 1013.3 |
| 20260903190305 | 84 | 116 | 0.0 | 6.0 | 0.00 | 0.00 | 0.00 | 75 | 1013.3 |
| 20260903185802 | 83 | 131 | 5.0 | 7.0 | 0.00 | 0.00 | 0.00 | 75 | 1013.7 |
| 20260903185302 | 83 | 157 | 1.0 | 7.0 | 0.00 | 0.00 | 0.00 | 75 | 1013.3 |
| 20260903185023 | 83 | 158 | 4.0 | 6.0 | 0.00 | 0.00 | 0.00 | 76 | 1013.3 |
| 20260903184301 | 82 | 147 | 1.0 | 6.0 | 0.00 | 0.00 | 0.00 | 76 | 1013.7 |
| 20260903183802 | 82 | 152 | 3.0 | 6.0 | 0.00 | 0.00 | 0.00 | 76 | 1013.7 |
| 20260903183302 | 81 | 133 | 2.0 | 6.0 | 0.00 | 0.00 | 0.00 | 77 | 1013.7 |
| 20260903182800 | 82 | 54 | 6.0 | 6.0 | 0.00 | 0.00 | 0.00 | 77 | 1014.0 |
| 20260903182259 | 81 | 17 | 0.0 | 5.0 | 0.00 | 0.00 | 0.00 | 76 | 1013.7 |
| 20260903181759 | 81 | 151 | 2.0 | 9.0 | 0.00 | 0.00 | 0.00 | 78 | 1014.0 |
| 20260903181301 | 80 | 92 | 3.0 | 9.0 | 0.00 | 0.00 | 0.00 | 79 | 1014.0 |
| 20260903180759 | 80 | 70 | 4.0 | 6.0 | 0.00 | 0.00 | 0.00 | 79 | 1014.0 |
| 20260903180257 | 80 | 83 | 3.0 | 10.0 | 0.00 | 0.00 | 0.00 | 82 | 1014.3 |
| 20260903175756 | 79 | 191 | 2.0 | 10.0 | 0.00 | 0.00 | 0.00 | 80 | 1014.3 |
| 20260903175258 | 79 | 42 | 2.0 | 9.0 | 0.00 | 0.00 | 0.00 | 82 | 1014.3 |
| 20260903174758 | 79 | 13 | 2.0 | 9.0 | 0.00 | 0.00 | 0.00 | 80 | 1014.3 |
| 20260903174258 | 79 | 117 | 2.0 | 9.0 | 0.00 | 0.00 | 0.00 | 81 | 1014.3 |
| 20260903173809 | 79 | 111 | 3.0 | 9.0 | 0.00 | 0.00 | 0.00 | 82 | 1014.3 |
| 20260903173525 | 78 | 150 | 1.0 | 7.0 | 0.00 | 0.00 | 0.00 | 82 | 1014.3 |
| 20260903172754 | 79 | 343 | 3.0 | 6.0 | 0.00 | 0.00 | 0.00 | 81 | 1014.7 |
| 20260903172253 | 79 | 334 | 3.0 | 6.0 | 0.00 | 0.00 | 0.00 | 83 | 1014.7 |
| 20260903172023 | 78 | 340 | 4.0 | 7.0 | 0.00 | 0.00 | 0.00 | 81 | 1014.7 |
| 20260903171254 | 78 | 18 | 2.0 | 9.0 | 0.00 | 0.00 | 0.00 | 82 | 1014.7 |